Meteo orario Abbakumovo

Oggi, 6 Marzo, Sabato

Tempo Temperatura Precipitazioni Vento Pressione Umidità
00:00 -10°C° 0 mm 2 m/s 741 mm Hg 91%
01:00 -10°C° 0 mm 2 m/s 741 mm Hg 91%
02:00 -9°C° 0 mm 1 m/s 742 mm Hg 93%
03:00 -10°C° 0 mm 2 m/s 742 mm Hg 93%
04:00 -10°C° 0 mm 2 m/s 741 mm Hg 94%
05:00 -10°C° 0 mm 2 m/s 741 mm Hg 94%
06:00 -10°C° 0 mm 2 m/s 742 mm Hg 92%
07:00 -10°C° 0 mm 3 m/s 742 mm Hg 91%
08:00 -10°C° 0 mm 3 m/s 742 mm Hg 89%
09:00 -9°C° 0 mm 3 m/s 742 mm Hg 83%
10:00 -8°C° 0 mm 3 m/s 742 mm Hg 77%
11:00 -7°C° 0 mm 3 m/s 742 mm Hg 71%
12:00 -7°C° 0 mm 3 m/s 741 mm Hg 68%
13:00 -6°C° 0 mm 3 m/s 741 mm Hg 65%
14:00 -6°C° 0 mm 3 m/s 740 mm Hg 61%
15:00 -6°C° 0 mm 3 m/s 740 mm Hg 66%
16:00 -7°C° 0 mm 3 m/s 739 mm Hg 70%
17:00 -8°C° 0 mm 3 m/s 739 mm Hg 74%
18:00 -7°C° 0 mm 3 m/s 738 mm Hg 74%
19:00 -8°C° 0 mm 4 m/s 737 mm Hg 73%
20:00 -8°C° 0 mm 5 m/s 737 mm Hg 73%
21:00 -8°C° 0.2 mm 5 m/s 735 mm Hg 79%
22:00 -9°C° 0.2 mm 6 m/s 734 mm Hg 85%
23:00 -9°C° 0.2 mm 7 m/s 732 mm Hg 90%

Domani, 7 Marzo, Domenica

Tempo Temperatura Precipitazioni Vento Pressione Umidità
00:00 -8°C° 0.4 mm 7 m/s 731 mm Hg 91%
01:00 -8°C° 0.4 mm 7 m/s 730 mm Hg 92%
02:00 -7°C° 0.4 mm 7 m/s 729 mm Hg 92%
03:00 -7°C° 0.5 mm 7 m/s 727 mm Hg 92%
04:00 -7°C° 0.5 mm 7 m/s 726 mm Hg 92%
05:00 -7°C° 0.5 mm 7 m/s 725 mm Hg 92%
06:00 -5°C° 0.9 mm 6 m/s 724 mm Hg 92%
07:00 -5°C° 0.9 mm 6 m/s 723 mm Hg 92%
08:00 -5°C° 0.9 mm 6 m/s 722 mm Hg 92%
09:00 -7°C° 0.5 mm 7 m/s 723 mm Hg 83%
10:00 -8°C° 0.5 mm 7 m/s 723 mm Hg 73%
11:00 -9°C° 0.5 mm 7 m/s 723 mm Hg 64%
12:00 -8°C° 0.1 mm 7 m/s 724 mm Hg 63%
13:00 -8°C° 0.1 mm 7 m/s 724 mm Hg 61%
14:00 -8°C° 0.1 mm 7 m/s 725 mm Hg 60%
15:00 -8°C° 0.1 mm 5 m/s 725 mm Hg 65%
16:00 -9°C° 0.1 mm 4 m/s 725 mm Hg 70%
17:00 -8°C° 0.1 mm 3 m/s 725 mm Hg 75%
18:00 -8°C° 0 mm 2 m/s 724 mm Hg 82%
19:00 -9°C° 0 mm 2 m/s 724 mm Hg 88%
20:00 -8°C° 0 mm 1 m/s 724 mm Hg 95%
21:00 -9°C° 0.1 mm 1 m/s 724 mm Hg 95%
22:00 -10°C° 0.1 mm 2 m/s 724 mm Hg 95%
23:00 -10°C° 0.1 mm 2 m/s 725 mm Hg 95%

Dopodomani, 8 Marzo, Lunedi

Tempo Temperatura Precipitazioni Vento Pressione Umidità
00:00 -12°C° 0 mm 3 m/s 725 mm Hg 92%
01:00 -13°C° 0 mm 3 m/s 726 mm Hg 89%
02:00 -14°C° 0 mm 4 m/s 727 mm Hg 86%
03:00 -14°C° 0 mm 4 m/s 727 mm Hg 87%
04:00 -14°C° 0 mm 5 m/s 728 mm Hg 88%
05:00 -14°C° 0 mm 5 m/s 728 mm Hg 89%
06:00 -14°C° 0 mm 5 m/s 729 mm Hg 88%
07:00 -13°C° 0 mm 5 m/s 730 mm Hg 87%
08:00 -13°C° 0 mm 5 m/s 731 mm Hg 86%
09:00 -13°C° 0 mm 5 m/s 731 mm Hg 84%
10:00 -12°C° 0 mm 5 m/s 732 mm Hg 82%
11:00 -11°C° 0 mm 4 m/s 733 mm Hg 80%
12:00 -11°C° 0 mm 4 m/s 734 mm Hg 80%
13:00 -11°C° 0 mm 4 m/s 734 mm Hg 79%
14:00 -10°C° 0 mm 4 m/s 735 mm Hg 79%
15:00 -11°C° 0 mm 4 m/s 735 mm Hg 81%
16:00 -11°C° 0 mm 4 m/s 736 mm Hg 83%
17:00 -12°C° 0 mm 4 m/s 736 mm Hg 85%
18:00 -13°C° 0 mm 3 m/s 737 mm Hg 88%
19:00 -14°C° 0 mm 3 m/s 738 mm Hg 90%
20:00 -13°C° 0 mm 2 m/s 738 mm Hg 93%
21:00 -14°C° 0 mm 2 m/s 739 mm Hg 94%
22:00 -15°C° 0 mm 2 m/s 739 mm Hg 95%
23:00 -16°C° 0 mm 2 m/s 739 mm Hg 96%

9 Marzo, Martedi

Tempo Temperatura Precipitazioni Vento Pressione Umidità
00:00 -17°C° 0 mm 2 m/s 740 mm Hg 96%
01:00 -18°C° 0 mm 2 m/s 740 mm Hg 96%
02:00 -18°C° 0 mm 2 m/s 740 mm Hg 97%
03:00 -19°C° 0 mm 2 m/s 741 mm Hg 97%
04:00 -19°C° 0 mm 2 m/s 741 mm Hg 97%
05:00 -20°C° 0 mm 2 m/s 741 mm Hg 97%
06:00 -20°C° 0 mm 2 m/s 742 mm Hg 94%
07:00 -19°C° 0 mm 2 m/s 742 mm Hg 92%
08:00 -19°C° 0 mm 2 m/s 743 mm Hg 90%
09:00 -18°C° 0 mm 2 m/s 743 mm Hg 85%
10:00 -16°C° 0 mm 2 m/s 743 mm Hg 80%
11:00 -14°C° 0 mm 2 m/s 743 mm Hg 75%
12:00 -14°C° 0 mm 2 m/s 743 mm Hg 73%
13:00 -13°C° 0 mm 2 m/s 744 mm Hg 71%
14:00 -12°C° 0 mm 2 m/s 744 mm Hg 69%
15:00 -12°C° 0 mm 2 m/s 744 mm Hg 74%
16:00 -11°C° 0 mm 1 m/s 743 mm Hg 79%
17:00 -11°C° 0 mm 1 m/s 743 mm Hg 83%
18:00 -12°C° 0 mm 1 m/s 744 mm Hg 86%
19:00 -12°C° 0 mm 1 m/s 744 mm Hg 89%
20:00 -13°C° 0 mm 1 m/s 744 mm Hg 92%
21:00 -13°C° 0.1 mm 1 m/s 744 mm Hg 91%
22:00 -16°C° 0.1 mm 2 m/s 744 mm Hg 91%
23:00 -17°C° 0.1 mm 3 m/s 744 mm Hg 91%

10 Marzo, Mercoledi

Tempo Temperatura Precipitazioni Vento Pressione Umidità
00:00 -17°C° 0.1 mm 3 m/s 744 mm Hg 91%
01:00 -18°C° 0.1 mm 3 m/s 744 mm Hg 90%
02:00 -18°C° 0.1 mm 3 m/s 744 mm Hg 90%
03:00 -19°C° 0 mm 3 m/s 744 mm Hg 90%
04:00 -21°C° 0 mm 3 m/s 744 mm Hg 89%
05:00 -21°C° 0 mm 3 m/s 744 mm Hg 89%
06:00 -22°C° 0 mm 3 m/s 745 mm Hg 86%
07:00 -22°C° 0 mm 3 m/s 745 mm Hg 84%
08:00 -22°C° 0 mm 3 m/s 745 mm Hg 81%
09:00 -19°C° 0 mm 3 m/s 746 mm Hg 76%
10:00 -17°C° 0 mm 3 m/s 746 mm Hg 71%
11:00 -16°C° 0 mm 3 m/s 747 mm Hg 66%
12:00 -15°C° 0 mm 3 m/s 747 mm Hg 66%
13:00 -14°C° 0 mm 3 m/s 747 mm Hg 67%
14:00 -14°C° 0 mm 3 m/s 747 mm Hg 67%
15:00 -14°C° 0 mm 2 m/s 747 mm Hg 72%
16:00 -14°C° 0 mm 2 m/s 747 mm Hg 76%
17:00 -15°C° 0 mm 2 m/s 747 mm Hg 81%
18:00 -16°C° 0 mm 2 m/s 747 mm Hg 84%
19:00 -18°C° 0 mm 2 m/s 747 mm Hg 88%
20:00 -19°C° 0 mm 2 m/s 747 mm Hg 91%
21:00 -21°C° 0 mm 3 m/s 747 mm Hg 90%
22:00 -21°C° 0 mm 3 m/s 747 mm Hg 89%
23:00 -21°C° 0 mm 3 m/s 747 mm Hg 88%

11 Marzo, Giovedi

Tempo Temperatura Precipitazioni Vento Pressione Umidità
00:00 -21°C° 0 mm 3 m/s 746 mm Hg 86%
01:00 -21°C° 0 mm 3 m/s 746 mm Hg 84%
02:00 -20°C° 0 mm 4 m/s 746 mm Hg 83%
03:00 -20°C° 0.1 mm 4 m/s 746 mm Hg 85%
04:00 -20°C° 0.1 mm 4 m/s 745 mm Hg 86%
05:00 -20°C° 0.1 mm 4 m/s 745 mm Hg 88%
06:00 -20°C° 0.1 mm 4 m/s 745 mm Hg 89%
07:00 -19°C° 0.1 mm 4 m/s 744 mm Hg 90%
08:00 -19°C° 0.1 mm 4 m/s 744 mm Hg 91%
09:00 -18°C° 0.1 mm 4 m/s 744 mm Hg 89%
10:00 -16°C° 0.1 mm 4 m/s 743 mm Hg 87%
11:00 -15°C° 0.1 mm 4 m/s 743 mm Hg 85%
12:00 -12°C° 0 mm 4 m/s 742 mm Hg 85%
13:00 -12°C° 0 mm 5 m/s 742 mm Hg 85%
14:00 -11°C° 0 mm 5 m/s 741 mm Hg 85%
15:00 -11°C° 0 mm 5 m/s 740 mm Hg 86%
16:00 -11°C° 0 mm 5 m/s 739 mm Hg 87%
17:00 -11°C° 0 mm 5 m/s 739 mm Hg 89%
18:00 -11°C° 0.1 mm 6 m/s 738 mm Hg 89%
19:00 -11°C° 0.1 mm 6 m/s 737 mm Hg 88%
20:00 -10°C° 0.1 mm 6 m/s 736 mm Hg 88%
21:00 -9°C° 0.1 mm 7 m/s 735 mm Hg 88%
22:00 -9°C° 0.1 mm 7 m/s 734 mm Hg 88%
23:00 -8°C° 0.1 mm 7 m/s 733 mm Hg 88%
Mostrare altro

Abbiamo bisogno del tuo consenso

Meteoprog e i nostri fornitori di servizi possono memorizzare e accedere a dati personali come cookie, identificatori di dispositivi o altre tecnologie simili sul tuo dispositivo e possono elaborare tali dati per personalizzare i contenuti e gli annunci, nonché fornire funzionalità dei social media e analizzarne il traffico.

  • Archiviare e/o accedere alle informazioni sul tuo dispositivo

    Cookie, identificatori di dispositivi o altre informazioni possono essere memorizzati o resi accessibili sul tuo dispositivo per le finalità sopra indicate.

  • Annunci e contenuti personalizzati, misurazione di annunci e contenuti, approfondimenti sul pubblico e sviluppo di prodotti

    Gli annunci e i contenuti possono essere personalizzati in base a un profilo. È possibile aggiungere più dati per personalizzare meglio annunci e contenuti. È possibile misurare il rendimento degli annunci e dei contenuti. È possibile ricavare informazioni sul pubblico che ha visto gli annunci e i contenuti. Tali dati possono essere utilizzati per sviluppare o migliorare l'esperienza, i sistemi e il software dell'utente.

Cliccando su “Accetto”, acconsenti all'uso di cookie, identificatori di dispositivo, web beacon o altre tecnologie simili. Puoi modificare le impostazioni nel browser del tuo dispositivo.

Per determinati scopi, è possibile fare affidamento su interessi legali, piuttosto che sul consenso. Puoi approfondire questo argomento consultando la nostra Informativa sulla privacy e sui cookie.